| time (UTC) | temp F | wind direction | speed MPH | gust MPH | rain 1hr in | rain 24hr in | rain mn in | humidity % | barometer mb |
| 20260905224025 | 78 | 336 | 0.0 | 3.0 | 0.00 | 0.01 | 0.01 | 55 | 1009.8 |
| 20260905223526 | 78 | 318 | 1.0 | 3.0 | 0.00 | 0.01 | 0.01 | 55 | 1009.6 |
| 20260905223056 | 78 | 0 | 1.0 | 4.0 | 0.00 | 0.01 | 0.01 | 54 | 1009.6 |
| 20260905222523 | 78 | 340 | 1.0 | 4.0 | 0.00 | 0.01 | 0.01 | 53 | 1009.6 |
| 20260905222027 | 79 | 318 | 1.0 | 4.0 | 0.00 | 0.01 | 0.01 | 54 | 1009.6 |
| 20260905221548 | 79 | 0 | 1.0 | 4.0 | 0.00 | 0.01 | 0.01 | 53 | 1009.5 |
| 20260905221024 | 79 | 38 | 1.0 | 5.0 | 0.00 | 0.01 | 0.01 | 52 | 1009.4 |
| 20260905220524 | 79 | 0 | 0.0 | 5.0 | 0.00 | 0.01 | 0.01 | 54 | 1009.5 |
| 20260905220048 | 79 | 34 | 2.0 | 5.0 | 0.00 | 0.01 | 0.01 | 55 | 1009.4 |
| 20260905215525 | 79 | 12 | 0.0 | 3.0 | 0.00 | 0.01 | 0.01 | 54 | 1009.5 |
| 20260905215024 | 79 | 307 | 1.0 | 8.0 | 0.00 | 0.01 | 0.01 | 54 | 1009.5 |
| 20260905214546 | 79 | 118 | 1.0 | 8.0 | 0.00 | 0.01 | 0.01 | 53 | 1009.4 |
| 20260905214025 | 79 | 63 | 3.0 | 7.0 | 0.00 | 0.01 | 0.01 | 52 | 1009.4 |
| 20260905213528 | 79 | 100 | 3.0 | 5.0 | 0.00 | 0.01 | 0.01 | 52 | 1009.4 |
| 20260905213051 | 79 | 58 | 1.0 | 5.0 | 0.00 | 0.01 | 0.01 | 52 | 1009.4 |
| 20260905212531 | 79 | 112 | 1.0 | 5.0 | 0.00 | 0.01 | 0.01 | 53 | 1009.3 |
| 20260905212025 | 79 | 36 | 1.0 | 7.0 | 0.00 | 0.01 | 0.01 | 53 | 1009.3 |
| 20260905211547 | 79 | 58 | 2.0 | 7.0 | 0.00 | 0.01 | 0.01 | 52 | 1009.3 |
| 20260905211028 | 80 | 42 | 2.0 | 6.0 | 0.00 | 0.01 | 0.01 | 51 | 1009.3 |
| 20260905210524 | 80 | 67 | 2.0 | 5.0 | 0.00 | 0.01 | 0.01 | 51 | 1009.2 |
| 20260905210112 | 80 | 61 | 2.0 | 5.0 | 0.00 | 0.01 | 0.01 | 52 | 1009.3 |
| 20260905205524 | 80 | 0 | 1.0 | 6.0 | 0.00 | 0.01 | 0.01 | 52 | 1009.1 |
| 20260905205025 | 80 | 36 | 1.0 | 10.0 | 0.00 | 0.01 | 0.01 | 51 | 1009.1 |
| 20260905204542 | 80 | 49 | 3.0 | 10.0 | 0.00 | 0.01 | 0.01 | 49 | 1009.1 |
| 20260905204025 | 81 | 37 | 2.0 | 10.0 | 0.00 | 0.01 | 0.01 | 48 | 1009.1 |
| 20260905203529 | 81 | 30 | 1.0 | 6.0 | 0.00 | 0.01 | 0.01 | 50 | 1009.2 |
| 20260905203050 | 81 | 46 | 1.0 | 6.0 | 0.00 | 0.01 | 0.01 | 49 | 1009.1 |
| 20260905202525 | 81 | 49 | 1.0 | 6.0 | 0.00 | 0.01 | 0.01 | 49 | 1009.1 |
| 20260905202024 | 82 | 65 | 1.0 | 6.0 | 0.00 | 0.01 | 0.01 | 49 | 1009.1 |
| 20260905201544 | 82 | 41 | 2.0 | 9.0 | 0.00 | 0.01 | 0.01 | 49 | 1009.1 |
| 20260905201025 | 81 | 36 | 3.0 | 9.0 | 0.00 | 0.01 | 0.01 | 46 | 1009.2 |
| 20260905200524 | 81 | 65 | 2.0 | 8.0 | 0.00 | 0.01 | 0.01 | 46 | 1009.2 |
| 20260905200110 | 81 | 64 | 3.0 | 8.0 | 0.00 | 0.01 | 0.01 | 50 | 1009.2 |
| 20260905195526 | 81 | 282 | 2.0 | 9.0 | 0.00 | 0.01 | 0.01 | 50 | 1009.3 |
| 20260905195030 | 81 | 312 | 4.0 | 9.0 | 0.00 | 0.01 | 0.01 | 50 | 1009.4 |
| 20260905194552 | 81 | 302 | 2.0 | 5.0 | 0.00 | 0.01 | 0.01 | 49 | 1009.4 |
| 20260905194027 | 81 | 294 | 2.0 | 5.0 | 0.00 | 0.01 | 0.01 | 49 | 1009.5 |
| 20260905193527 | 81 | 311 | 1.0 | 9.0 | 0.00 | 0.01 | 0.01 | 50 | 1009.5 |
| 20260905193046 | 81 | 295 | 2.0 | 9.0 | 0.00 | 0.01 | 0.01 | 50 | 1009.5 |
| 20260905192525 | 81 | 5 | 2.0 | 8.0 | 0.00 | 0.01 | 0.01 | 49 | 1009.6 |
| 20260905192026 | 80 | 0 | 0.0 | 8.0 | 0.00 | 0.01 | 0.01 | 50 | 1009.7 |
| 20260905191546 | 80 | 334 | 3.0 | 8.0 | 0.00 | 0.01 | 0.01 | 49 | 1009.7 |
| 20260905191025 | 81 | 21 | 1.0 | 8.0 | 0.00 | 0.01 | 0.01 | 49 | 1009.6 |
| 20260905190525 | 80 | 328 | 1.0 | 3.0 | 0.00 | 0.01 | 0.01 | 50 | 1009.7 |
| 20260905190053 | 80 | 305 | 1.0 | 6.0 | 0.00 | 0.01 | 0.01 | 51 | 1009.7 |
| 20260905185524 | 81 | 303 | 1.0 | 6.0 | 0.00 | 0.01 | 0.01 | 49 | 1009.6 |
| 20260905185024 | 81 | 331 | 2.0 | 6.0 | 0.00 | 0.01 | 0.01 | 49 | 1009.7 |
| 20260905184607 | 81 | 339 | 0.0 | 5.0 | 0.00 | 0.01 | 0.01 | 49 | 1009.6 |
| 20260905184027 | 80 | 306 | 2.0 | 6.0 | 0.00 | 0.01 | 0.01 | 49 | 1009.7 |
| 20260905183526 | 80 | 35 | 1.0 | 6.0 | 0.00 | 0.01 | 0.01 | 50 | 1009.8 |
| 20260905183049 | 81 | 19 | 3.0 | 6.0 | 0.00 | 0.01 | 0.01 | 47 | 1009.8 |
| 20260905182525 | 81 | 62 | 1.0 | 6.0 | 0.00 | 0.01 | 0.01 | 48 | 1009.9 |
| 20260905182028 | 80 | 0 | 2.0 | 6.0 | 0.00 | 0.01 | 0.01 | 47 | 1009.9 |
| 20260905181548 | 80 | 331 | 2.0 | 9.0 | 0.00 | 0.01 | 0.01 | 51 | 1010.0 |
| 20260905181024 | 79 | 34 | 1.0 | 9.0 | 0.00 | 0.01 | 0.01 | 51 | 1010.1 |
| 20260905180524 | 79 | 333 | 2.0 | 10.0 | 0.00 | 0.01 | 0.01 | 51 | 1010.1 |
| 20260905180053 | 80 | 309 | 3.0 | 10.0 | 0.00 | 0.01 | 0.01 | 49 | 1010.2 |
| 20260905175526 | 79 | 308 | 3.0 | 9.0 | 0.00 | 0.01 | 0.01 | 51 | 1010.1 |
| 20260905175031 | 79 | 317 | 1.0 | 9.0 | 0.00 | 0.01 | 0.01 | 50 | 1010.2 |
| 20260905174550 | 80 | 360 | 3.0 | 8.0 | 0.00 | 0.01 | 0.01 | 50 | 1010.2 |
| 20260905174024 | 80 | 319 | 2.0 | 8.0 | 0.00 | 0.01 | 0.01 | 50 | 1010.2 |
| 20260905173525 | 80 | 300 | 1.0 | 9.0 | 0.00 | 0.01 | 0.01 | 50 | 1010.3 |
| 20260905173052 | 80 | 338 | 2.0 | 9.0 | 0.00 | 0.01 | 0.01 | 50 | 1010.2 |
| 20260905172525 | 80 | 269 | 1.0 | 8.0 | 0.00 | 0.01 | 0.01 | 53 | 1010.2 |
| 20260905172025 | 80 | 58 | 3.0 | 9.0 | 0.00 | 0.01 | 0.01 | 51 | 1010.3 |
| 20260905171545 | 80 | 267 | 3.0 | 9.0 | 0.00 | 0.01 | 0.01 | 52 | 1010.3 |
| 20260905171027 | 80 | 267 | 2.0 | 6.0 | 0.00 | 0.01 | 0.01 | 51 | 1010.2 |
| 20260905170525 | 80 | 298 | 1.0 | 9.0 | 0.00 | 0.01 | 0.01 | 52 | 1010.2 |
| 20260905170043 | 80 | 304 | 2.0 | 9.0 | 0.00 | 0.01 | 0.01 | 52 | 1010.2 |
| 20260905165524 | 80 | 0 | 1.0 | 6.0 | 0.00 | 0.01 | 0.01 | 55 | 1010.2 |
| 20260905165028 | 79 | 313 | 2.0 | 7.0 | 0.00 | 0.01 | 0.01 | 54 | 1010.3 |
| 20260905164549 | 80 | 323 | 2.0 | 7.0 | 0.00 | 0.01 | 0.01 | 54 | 1010.3 |
| 20260905164027 | 80 | 259 | 2.0 | 9.0 | 0.00 | 0.01 | 0.01 | 54 | 1010.4 |
| 20260905163524 | 79 | 336 | 2.0 | 9.0 | 0.00 | 0.01 | 0.01 | 52 | 1010.4 |
| 20260905163047 | 79 | 29 | 2.0 | 9.0 | 0.00 | 0.01 | 0.01 | 53 | 1010.4 |
| 20260905162525 | 79 | 348 | 1.0 | 9.0 | 0.00 | 0.01 | 0.01 | 53 | 1010.4 |
| 20260905162024 | 79 | 310 | 3.0 | 10.0 | 0.00 | 0.01 | 0.01 | 55 | 1010.6 |
| 20260905161544 | 79 | 338 | 4.0 | 10.0 | 0.00 | 0.01 | 0.01 | 54 | 1010.6 |
| 20260905161030 | 79 | 300 | 3.0 | 8.0 | 0.00 | 0.01 | 0.01 | 55 | 1010.7 |
| 20260905160524 | 79 | 66 | 2.0 | 8.0 | 0.00 | 0.01 | 0.01 | 57 | 1010.6 |
| 20260905160042 | 79 | 301 | 2.0 | 5.0 | 0.00 | 0.01 | 0.01 | 55 | 1010.7 |
| 20260905155523 | 80 | 274 | 1.0 | 5.0 | 0.00 | 0.01 | 0.01 | 57 | 1010.8 |
| 20260905155024 | 79 | 72 | 1.0 | 5.0 | 0.00 | 0.01 | 0.01 | 57 | 1010.8 |
| 20260905154556 | 78 | 28 | 1.0 | 5.0 | 0.00 | 0.01 | 0.01 | 58 | 1010.9 |
| 20260905154025 | 79 | 279 | 0.0 | 8.0 | 0.00 | 0.01 | 0.01 | 59 | 1010.8 |
| 20260905153528 | 78 | 325 | 3.0 | 9.0 | 0.00 | 0.01 | 0.01 | 58 | 1010.8 |
| 20260905153046 | 78 | 323 | 3.0 | 10.0 | 0.00 | 0.01 | 0.01 | 59 | 1010.9 |
| 20260905152530 | 78 | 347 | 3.0 | 10.0 | 0.00 | 0.01 | 0.01 | 59 | 1011.0 |
| 20260905152025 | 77 | 264 | 3.0 | 11.0 | 0.00 | 0.01 | 0.01 | 61 | 1011.0 |
| 20260905151609 | 78 | 310 | 3.0 | 11.0 | 0.00 | 0.01 | 0.01 | 59 | 1011.0 |
| 20260905151028 | 78 | 331 | 2.0 | 6.0 | 0.00 | 0.01 | 0.01 | 59 | 1010.9 |
| 20260905150527 | 78 | 335 | 1.0 | 6.0 | 0.00 | 0.01 | 0.01 | 62 | 1011.0 |
| 20260905150041 | 78 | 61 | 2.0 | 6.0 | 0.00 | 0.01 | 0.01 | 63 | 1010.9 |
| 20260905145525 | 76 | 301 | 0.0 | 9.0 | 0.00 | 0.01 | 0.01 | 65 | 1010.9 |
| 20260905145027 | 75 | 321 | 3.0 | 9.0 | 0.00 | 0.01 | 0.01 | 64 | 1010.8 |
| 20260905144549 | 76 | 350 | 3.0 | 6.0 | 0.00 | 0.01 | 0.01 | 65 | 1011.0 |
| 20260905144027 | 76 | 325 | 1.0 | 8.0 | 0.00 | 0.01 | 0.01 | 66 | 1010.8 |
| 20260905143525 | 75 | 309 | 2.0 | 8.0 | 0.00 | 0.01 | 0.01 | 66 | 1010.7 |
| 20260905143048 | 75 | 290 | 1.0 | 10.0 | 0.00 | 0.01 | 0.01 | 68 | 1010.8 |
| 20260905142530 | 75 | 319 | 3.0 | 10.0 | 0.00 | 0.01 | 0.01 | 66 | 1010.7 |
| 20260905142024 | 75 | 335 | 3.0 | 8.0 | 0.00 | 0.01 | 0.01 | 67 | 1010.7 |
| 20260905141555 | 75 | 0 | 1.0 | 4.0 | 0.00 | 0.01 | 0.01 | 70 | 1010.8 |
| 20260905141027 | 74 | 0 | 0.0 | 4.0 | 0.00 | 0.01 | 0.01 | 72 | 1010.7 |
| 20260905140527 | 74 | 269 | 2.0 | 9.0 | 0.00 | 0.01 | 0.01 | 70 | 1010.7 |
| 20260905140054 | 73 | 327 | 3.0 | 9.0 | 0.00 | 0.01 | 0.01 | 69 | 1010.6 |
| 20260905135530 | 73 | 311 | 1.0 | 6.0 | 0.00 | 0.01 | 0.01 | 70 | 1010.6 |
| 20260905135025 | 73 | 348 | 2.0 | 6.0 | 0.00 | 0.01 | 0.01 | 69 | 1010.5 |
| 20260905134548 | 73 | 343 | 1.0 | 8.0 | 0.00 | 0.01 | 0.01 | 69 | 1010.3 |
| 20260905134024 | 73 | 331 | 1.0 | 8.0 | 0.00 | 0.01 | 0.01 | 71 | 1010.4 |
| 20260905133528 | 73 | 330 | 3.0 | 8.0 | 0.00 | 0.01 | 0.01 | 70 | 1010.5 |
| 20260905133047 | 72 | 321 | 1.0 | 4.0 | 0.00 | 0.01 | 0.01 | 71 | 1010.6 |
| 20260905132529 | 72 | 320 | 1.0 | 6.0 | 0.00 | 0.01 | 0.01 | 71 | 1010.5 |
| 20260905132029 | 72 | 313 | 2.0 | 6.0 | 0.00 | 0.01 | 0.01 | 72 | 1010.3 |
| 20260905131602 | 72 | 9 | 2.0 | 5.0 | 0.00 | 0.01 | 0.01 | 72 | 1010.4 |
| 20260905131030 | 72 | 321 | 1.0 | 5.0 | 0.00 | 0.01 | 0.01 | 72 | 1010.5 |
| 20260905130527 | 72 | 333 | 2.0 | 9.0 | 0.00 | 0.01 | 0.01 | 72 | 1010.4 |
| 20260905130057 | 72 | 325 | 3.0 | 9.0 | 0.00 | 0.01 | 0.01 | 71 | 1010.3 |
| 20260905125529 | 72 | 333 | 1.0 | 4.0 | 0.00 | 0.01 | 0.01 | 72 | 1010.4 |
| 20260905125029 | 72 | 335 | 2.0 | 4.0 | 0.00 | 0.01 | 0.01 | 72 | 1010.6 |
| 20260905124547 | 72 | 316 | 1.0 | 4.0 | 0.00 | 0.01 | 0.01 | 72 | 1010.6 |
| 20260905124032 | 72 | 309 | 1.0 | 2.0 | 0.00 | 0.01 | 0.01 | 73 | 1010.7 |
| 20260905123527 | 72 | 0 | 0.0 | 3.0 | 0.00 | 0.01 | 0.01 | 73 | 1010.7 |
| 20260905123105 | 72 | 339 | 0.0 | 3.0 | 0.00 | 0.01 | 0.01 | 73 | 1010.7 |
| 20260905122529 | 71 | 0 | 1.0 | 5.0 | 0.00 | 0.01 | 0.01 | 73 | 1010.7 |
| 20260905122033 | 71 | 338 | 2.0 | 6.0 | 0.00 | 0.01 | 0.01 | 73 | 1010.7 |
| 20260905121554 | 71 | 317 | 1.0 | 6.0 | 0.00 | 0.01 | 0.01 | 74 | 1010.8 |
| 20260905121030 | 71 | 332 | 2.0 | 6.0 | 0.00 | 0.01 | 0.01 | 75 | 1010.9 |
| 20260905120528 | 71 | 333 | 1.0 | 3.0 | 0.00 | 0.01 | 0.01 | 76 | 1010.8 |
| 20260905120057 | 71 | 327 | 1.0 | 2.0 | 0.00 | 0.01 | 0.01 | 76 | 1010.7 |
| 20260905115533 | 71 | 325 | 1.0 | 2.0 | 0.00 | 0.01 | 0.01 | 76 | 1010.7 |
| 20260905115030 | 71 | 0 | 0.0 | 2.0 | 0.00 | 0.01 | 0.01 | 77 | 1010.6 |
| 20260905114550 | 71 | 51 | 0.0 | 2.0 | 0.00 | 0.01 | 0.01 | 76 | 1010.3 |
| 20260905114027 | 71 | 55 | 0.0 | 2.0 | 0.00 | 0.01 | 0.01 | 77 | 1010.3 |
| 20260905113527 | 71 | 51 | 0.0 | 2.0 | 0.00 | 0.01 | 0.01 | 78 | 1010.2 |
| 20260905113049 | 71 | 0 | 0.0 | 2.0 | 0.00 | 0.01 | 0.01 | 79 | 1010.2 |
| 20260905112529 | 70 | 315 | 0.0 | 2.0 | 0.00 | 0.01 | 0.01 | 78 | 1010.2 |
| 20260905112030 | 70 | 334 | 1.0 | 2.0 | 0.00 | 0.01 | 0.01 | 78 | 1010.2 |
| 20260905111555 | 70 | 338 | 0.0 | 2.0 | 0.00 | 0.01 | 0.01 | 79 | 1010.3 |
| 20260905111029 | 70 | 339 | 0.0 | 3.0 | 0.00 | 0.01 | 0.01 | 78 | 1010.1 |
| 20260905110529 | 70 | 306 | 0.0 | 3.0 | 0.00 | 0.01 | 0.01 | 79 | 1010.1 |
| 20260905110046 | 70 | 0 | 0.0 | 1.0 | 0.00 | 0.01 | 0.01 | 81 | 1010.0 |
| 20260905105529 | 70 | 0 | 0.0 | 1.0 | 0.00 | 0.01 | 0.01 | 79 | 1009.7 |
| 20260905105029 | 70 | 324 | 0.0 | 1.0 | 0.00 | 0.01 | 0.01 | 80 | 1009.8 |
| 20260905104545 | 71 | 0 | 0.0 | 1.0 | 0.00 | 0.01 | 0.01 | 80 | 1009.8 |
| 20260905104028 | 71 | 0 | 0.0 | 1.0 | 0.00 | 0.01 | 0.01 | 80 | 1009.7 |
| 20260905103528 | 71 | 0 | 0.0 | 1.0 | 0.00 | 0.01 | 0.01 | 80 | 1009.6 |
| 20260905103056 | 71 | 0 | 0.0 | 1.0 | 0.00 | 0.01 | 0.01 | 79 | 1009.7 |
| 20260905102526 | 71 | 0 | 0.0 | 2.0 | 0.00 | 0.01 | 0.01 | 80 | 1009.5 |
| 20260905102029 | 71 | 0 | 0.0 | 2.0 | 0.00 | 0.01 | 0.01 | 81 | 1009.5 |
| 20260905101548 | 70 | 321 | 0.0 | 5.0 | 0.00 | 0.01 | 0.01 | 82 | 1009.6 |
| 20260905101030 | 70 | 0 | 1.0 | 5.0 | 0.00 | 0.01 | 0.01 | 84 | 1009.5 |
| 20260905100528 | 70 | 333 | 1.0 | 5.0 | 0.00 | 0.01 | 0.01 | 86 | 1009.5 |
| 20260905100106 | 70 | 0 | 0.0 | 0.0 | 0.00 | 0.01 | 0.01 | 89 | 1009.5 |
| 20260905095528 | 70 | 0 | 0.0 | 0.0 | 0.00 | 0.01 | 0.01 | 89 | 1009.5 |
| 20260905095028 | 70 | 0 | 0.0 | 0.0 | 0.00 | 0.01 | 0.01 | 88 | 1009.4 |
| 20260905094552 | 70 | 0 | 0.0 | 0.0 | 0.00 | 0.01 | 0.01 | 87 | 1009.4 |
| 20260905094032 | 71 | 318 | 0.0 | 1.0 | 0.00 | 0.01 | 0.01 | 86 | 1009.5 |
| 20260905093528 | 71 | 0 | 0.0 | 2.0 | 0.00 | 0.01 | 0.01 | 86 | 1009.5 |
| 20260905093049 | 71 | 317 | 0.0 | 2.0 | 0.00 | 0.01 | 0.01 | 87 | 1009.4 |
| 20260905092529 | 71 | 317 | 0.0 | 0.0 | 0.00 | 0.01 | 0.01 | 87 | 1009.4 |
| 20260905092029 | 71 | 0 | 0.0 | 1.0 | 0.00 | 0.01 | 0.01 | 87 | 1009.5 |
| 20260905091552 | 71 | 0 | 0.0 | 1.0 | 0.00 | 0.01 | 0.01 | 88 | 1009.5 |
| 20260905091029 | 71 | 0 | 0.0 | 3.0 | 0.00 | 0.01 | 0.01 | 88 | 1009.5 |
| 20260905090528 | 70 | 0 | 0.0 | 3.0 | 0.00 | 0.01 | 0.01 | 89 | 1009.5 |
| 20260905090047 | 70 | 330 | 1.0 | 3.0 | 0.00 | 0.01 | 0.01 | 91 | 1009.5 |
| 20260905085529 | 70 | 319 | 0.0 | 1.0 | 0.00 | 0.01 | 0.01 | 93 | 1009.5 |
| 20260905085029 | 70 | 319 | 0.0 | 1.0 | 0.00 | 0.01 | 0.01 | 94 | 1009.5 |
| 20260905084605 | 70 | 0 | 0.0 | 1.0 | 0.00 | 0.01 | 0.01 | 94 | 1009.5 |
| 20260905084028 | 70 | 0 | 0.0 | 1.0 | 0.00 | 0.01 | 0.01 | 94 | 1009.4 |
| 20260905083535 | 70 | 17 | 0.0 | 1.0 | 0.00 | 0.01 | 0.01 | 94 | 1009.5 |
| 20260905083051 | 70 | 0 | 0.0 | 0.0 | 0.00 | 0.01 | 0.01 | 94 | 1009.3 |
| 20260905082526 | 70 | 0 | 0.0 | 0.0 | 0.00 | 0.01 | 0.01 | 94 | 1009.3 |
| 20260905082029 | 70 | 0 | 0.0 | 0.0 | 0.00 | 0.01 | 0.01 | 94 | 1009.4 |
| 20260905081547 | 70 | 0 | 0.0 | 0.0 | 0.00 | 0.01 | 0.01 | 94 | 1009.4 |
| 20260905081029 | 70 | 0 | 0.0 | 0.0 | 0.00 | 0.01 | 0.01 | 94 | 1009.4 |
| 20260905080529 | 70 | 0 | 0.0 | 0.0 | 0.00 | 0.01 | 0.01 | 94 | 1009.4 |
| 20260905080112 | 70 | 0 | 0.0 | 0.0 | 0.00 | 0.01 | 0.01 | 93 | 1009.4 |
| 20260905075529 | 70 | 0 | 0.0 | 0.0 | 0.00 | 0.01 | 0.01 | 93 | 1009.4 |
| 20260905075029 | 70 | 0 | 0.0 | 0.0 | 0.00 | 0.01 | 0.01 | 93 | 1009.4 |
| 20260905074545 | 70 | 0 | 0.0 | 1.0 | 0.00 | 0.01 | 0.01 | 93 | 1009.4 |
| 20260905074028 | 71 | 0 | 0.0 | 1.0 | 0.00 | 0.01 | 0.01 | 94 | 1009.4 |
| 20260905073528 | 71 | 0 | 0.0 | 1.0 | 0.00 | 0.01 | 0.01 | 94 | 1009.4 |
| 20260905073048 | 71 | 0 | 0.0 | 0.0 | 0.00 | 0.01 | 0.01 | 94 | 1009.5 |
| 20260905072528 | 71 | 0 | 0.0 | 0.0 | 0.00 | 0.01 | 0.01 | 94 | 1009.5 |
| 20260905072028 | 71 | 0 | 0.0 | 0.0 | 0.00 | 0.01 | 0.01 | 94 | 1009.5 |
| 20260905071547 | 71 | 0 | 0.0 | 0.0 | 0.00 | 0.01 | 0.01 | 94 | 1009.5 |
| 20260905071023 | 71 | 0 | 0.0 | 1.0 | 0.00 | 0.01 | 0.01 | 94 | 1009.5 |
| 20260905070528 | 71 | 0 | 0.0 | 1.0 | 0.00 | 0.01 | 0.01 | 93 | 1009.6 |
| 20260905070053 | 71 | 0 | 0.0 | 0.0 | 0.00 | 0.01 | 0.01 | 93 | 1009.6 |
| 20260905065527 | 71 | 0 | 0.0 | 0.0 | 0.00 | 0.01 | 0.01 | 93 | 1009.5 |
| 20260905065025 | 71 | 0 | 0.0 | 0.0 | 0.00 | 0.01 | 0.01 | 93 | 1009.6 |
| 20260905064552 | 71 | 0 | 0.0 | 0.0 | 0.00 | 0.01 | 0.01 | 93 | 1009.6 |
| 20260905064025 | 71 | 0 | 0.0 | 0.0 | 0.00 | 0.01 | 0.01 | 93 | 1009.6 |
| 20260905063525 | 71 | 0 | 0.0 | 0.0 | 0.00 | 0.01 | 0.01 | 93 | 1009.7 |
| 20260905063049 | 71 | 0 | 0.0 | 0.0 | 0.00 | 0.01 | 0.01 | 93 | 1009.9 |
| 20260905062524 | 71 | 0 | 0.0 | 0.0 | 0.00 | 0.01 | 0.01 | 92 | 1009.9 |
| 20260905062024 | 71 | 0 | 0.0 | 0.0 | 0.00 | 0.01 | 0.01 | 92 | 1010.0 |
| 20260905061555 | 71 | 0 | 0.0 | 0.0 | 0.00 | 0.01 | 0.01 | 92 | 1010.0 |
| 20260905061027 | 71 | 0 | 0.0 | 0.0 | 0.00 | 0.01 | 0.01 | 92 | 1010.0 |
| 20260905060524 | 71 | 0 | 0.0 | 0.0 | 0.00 | 0.01 | 0.01 | 91 | 1010.0 |
| 20260905060100 | 71 | 0 | 0.0 | 0.0 | 0.00 | 0.01 | 0.01 | 91 | 1010.0 |
| 20260905055526 | 71 | 0 | 0.0 | 0.0 | 0.00 | 0.01 | 0.01 | 91 | 1010.1 |
| 20260905055026 | 71 | 0 | 0.0 | 0.0 | 0.00 | 0.01 | 0.01 | 91 | 1010.1 |
| 20260905054552 | 71 | 0 | 0.0 | 1.0 | 0.00 | 0.01 | 0.01 | 90 | 1010.1 |
| 20260905054030 | 72 | 0 | 0.0 | 1.0 | 0.00 | 0.01 | 0.01 | 89 | 1010.2 |
| 20260905053524 | 72 | 44 | 0.0 | 0.0 | 0.00 | 0.01 | 0.01 | 89 | 1010.2 |
| 20260905053056 | 72 | 0 | 0.0 | 0.0 | 0.00 | 0.01 | 0.01 | 89 | 1010.2 |
| 20260905052527 | 72 | 0 | 0.0 | 3.0 | 0.00 | 0.01 | 0.01 | 87 | 1010.2 |
| 20260905052028 | 72 | 0 | 0.0 | 3.0 | 0.01 | 0.01 | 0.01 | 87 | 1010.1 |
| 20260905051555 | 73 | 39 | 0.0 | 1.0 | 0.01 | 0.01 | 0.01 | 91 | 1010.2 |
| 20260905051027 | 73 | 0 | 0.0 | 1.0 | 0.01 | 0.01 | 0.01 | 91 | 1010.1 |
| 20260905050526 | 73 | 0 | 0.0 | 1.0 | 0.01 | 0.01 | 0.01 | 91 | 1010.4 |
| 20260905050046 | 74 | 0 | 0.0 | 0.0 | 0.01 | 0.01 | 0.01 | 92 | 1010.3 |
| 20260905045524 | 74 | 0 | 0.0 | 0.0 | 0.01 | 0.11 | 0.01 | 93 | 1010.4 |
| 20260905045030 | 74 | 0 | 0.0 | 1.0 | 0.01 | 0.11 | 0.01 | 93 | 1010.2 |
| 20260905044546 | 74 | 0 | 0.0 | 1.0 | 0.01 | 0.11 | 0.01 | 92 | 1010.2 |
| 20260905044024 | 74 | 0 | 0.0 | 0.0 | 0.01 | 0.11 | 0.01 | 92 | 1010.3 |
| 20260905043525 | 74 | 0 | 0.0 | 1.0 | 0.01 | 0.11 | 0.01 | 92 | 1010.4 |
| 20260905043108 | 74 | 0 | 0.0 | 1.0 | 0.01 | 0.11 | 0.01 | 92 | 1010.4 |
| 20260905042559 | 74 | 0 | 0.0 | 0.0 | 0.01 | 0.11 | 0.01 | 92 | 1010.6 |
| 20260905042026 | 74 | 0 | 0.0 | 0.0 | 0.00 | 0.10 | 0.00 | 91 | 1010.4 |
| 20260905041551 | 75 | 0 | 0.0 | 0.0 | 0.00 | 0.10 | 0.00 | 91 | 1010.3 |
| 20260905041024 | 75 | 0 | 0.0 | 0.0 | 0.00 | 0.10 | 0.00 | 90 | 1010.3 |
| 20260905040528 | 75 | 0 | 0.0 | 0.0 | 0.00 | 0.10 | 0.00 | 89 | 1010.3 |
| 20260905040050 | 75 | 0 | 0.0 | 0.0 | 0.00 | 0.10 | 0.00 | 88 | 1010.3 |
| 20260905035525 | 76 | 0 | 0.0 | 0.0 | 0.00 | 0.10 | 0.10 | 87 | 1010.4 |
| 20260905035026 | 76 | 0 | 0.0 | 0.0 | 0.00 | 0.10 | 0.10 | 87 | 1010.3 |
| 20260905034559 | 76 | 0 | 0.0 | 0.0 | 0.00 | 0.10 | 0.10 | 86 | 1010.3 |
| 20260905034028 | 76 | 0 | 0.0 | 0.0 | 0.00 | 0.10 | 0.10 | 87 | 1010.3 |
| 20260905033526 | 76 | 0 | 0.0 | 0.0 | 0.00 | 0.10 | 0.10 | 86 | 1010.3 |
| 20260905033047 | 76 | 0 | 0.0 | 0.0 | 0.00 | 0.10 | 0.10 | 86 | 1010.3 |
| 20260905032526 | 76 | 0 | 0.0 | 0.0 | 0.00 | 0.10 | 0.10 | 86 | 1010.3 |
| 20260905032026 | 76 | 0 | 0.0 | 0.0 | 0.00 | 0.10 | 0.10 | 86 | 1010.2 |
| 20260905031547 | 76 | 0 | 0.0 | 0.0 | 0.00 | 0.10 | 0.10 | 86 | 1010.3 |
| 20260905031024 | 76 | 0 | 0.0 | 0.0 | 0.00 | 0.10 | 0.10 | 86 | 1010.3 |
| 20260905030525 | 76 | 0 | 0.0 | 0.0 | 0.00 | 0.10 | 0.10 | 86 | 1010.2 |
| 20260905030058 | 76 | 0 | 0.0 | 0.0 | 0.00 | 0.10 | 0.10 | 85 | 1010.3 |
| 20260905025524 | 76 | 0 | 0.0 | 0.0 | 0.00 | 0.10 | 0.10 | 85 | 1010.2 |
| 20260905025027 | 76 | 0 | 0.0 | 0.0 | 0.00 | 0.10 | 0.10 | 85 | 1010.3 |
| 20260905024547 | 76 | 0 | 0.0 | 0.0 | 0.00 | 0.10 | 0.10 | 85 | 1010.2 |
| 20260905024026 | 76 | 0 | 0.0 | 0.0 | 0.00 | 0.10 | 0.10 | 85 | 1010.2 |
| 20260905023532 | 76 | 0 | 0.0 | 0.0 | 0.00 | 0.10 | 0.10 | 85 | 1010.2 |
| 20260905023059 | 76 | 0 | 0.0 | 0.0 | 0.00 | 0.10 | 0.10 | 85 | 1010.3 |
| 20260905022529 | 76 | 0 | 0.0 | 0.0 | 0.00 | 0.10 | 0.10 | 85 | 1010.4 |
| 20260905022026 | 76 | 0 | 0.0 | 1.0 | 0.00 | 0.10 | 0.10 | 85 | 1010.3 |
| 20260905021551 | 76 | 0 | 0.0 | 1.0 | 0.00 | 0.10 | 0.10 | 84 | 1010.3 |
| 20260905021027 | 76 | 273 | 0.0 | 1.0 | 0.00 | 0.10 | 0.10 | 85 | 1010.3 |
| 20260905020527 | 76 | 0 | 0.0 | 0.0 | 0.00 | 0.10 | 0.10 | 85 | 1010.2 |
| 20260905020056 | 76 | 0 | 0.0 | 0.0 | 0.00 | 0.10 | 0.10 | 85 | 1010.3 |
| 20260905015524 | 76 | 0 | 0.0 | 0.0 | 0.00 | 0.10 | 0.10 | 85 | 1010.2 |
| 20260905015029 | 76 | 0 | 0.0 | 0.0 | 0.00 | 0.10 | 0.10 | 85 | 1010.1 |
| 20260905014553 | 76 | 0 | 0.0 | 0.0 | 0.00 | 0.10 | 0.10 | 84 | 1010.1 |
| 20260905014029 | 76 | 0 | 0.0 | 0.0 | 0.00 | 0.10 | 0.10 | 84 | 1010.2 |
| 20260905013526 | 76 | 0 | 0.0 | 0.0 | 0.00 | 0.10 | 0.10 | 84 | 1010.3 |
| 20260905013048 | 76 | 0 | 0.0 | 0.0 | 0.00 | 0.10 | 0.10 | 84 | 1010.2 |
| 20260905012527 | 76 | 0 | 0.0 | 0.0 | 0.00 | 0.10 | 0.10 | 83 | 1010.2 |
| 20260905012025 | 76 | 0 | 0.0 | 0.0 | 0.00 | 0.10 | 0.10 | 83 | 1010.2 |
| 20260905011609 | 76 | 0 | 0.0 | 0.0 | 0.00 | 0.10 | 0.10 | 83 | 1010.2 |
| 20260905011025 | 76 | 0 | 0.0 | 0.0 | 0.00 | 0.10 | 0.10 | 83 | 1010.2 |
| 20260905010526 | 76 | 0 | 0.0 | 0.0 | 0.00 | 0.10 | 0.10 | 83 | 1010.3 |
| 20260905010046 | 77 | 0 | 0.0 | 1.0 | 0.00 | 0.10 | 0.10 | 83 | 1010.5 |
| 20260905005525 | 77 | 0 | 0.0 | 1.0 | 0.00 | 0.10 | 0.10 | 83 | 1010.4 |
| 20260905005025 | 76 | 0 | 0.0 | 0.0 | 0.00 | 0.10 | 0.10 | 83 | 1010.3 |
| 20260905004551 | 76 | 0 | 0.0 | 0.0 | 0.00 | 0.10 | 0.10 | 83 | 1010.4 |
| 20260905004028 | 77 | 0 | 0.0 | 0.0 | 0.00 | 0.10 | 0.10 | 83 | 1010.3 |
| 20260905003527 | 77 | 0 | 0.0 | 0.0 | 0.00 | 0.10 | 0.10 | 82 | 1010.3 |
| 20260905003054 | 77 | 0 | 0.0 | 0.0 | 0.00 | 0.10 | 0.10 | 82 | 1010.1 |
| 20260905002526 | 77 | 0 | 0.0 | 0.0 | 0.00 | 0.10 | 0.10 | 81 | 1010.0 |
| 20260905002028 | 77 | 0 | 0.0 | 0.0 | 0.00 | 0.10 | 0.10 | 81 | 1010.1 |
| 20260905001557 | 77 | 0 | 0.0 | 0.0 | 0.00 | 0.10 | 0.10 | 81 | 1009.9 |
| 20260905001026 | 77 | 0 | 0.0 | 0.0 | 0.00 | 0.10 | 0.10 | 80 | 1010.0 |
| 20260905000525 | 77 | 0 | 0.0 | 0.0 | 0.00 | 0.10 | 0.10 | 79 | 1009.9 |
| 20260905000048 | 78 | 0 | 0.0 | 0.0 | 0.00 | 0.10 | 0.10 | 79 | 1009.8 |
| 20260904235527 | 78 | 0 | 0.0 | 0.0 | 0.00 | 0.10 | 0.10 | 77 | 1009.8 |
| 20260904235026 | 78 | 0 | 0.0 | 0.0 | 0.00 | 0.10 | 0.10 | 77 | 1009.9 |
| 20260904234554 | 79 | 0 | 0.0 | 0.0 | 0.00 | 0.10 | 0.10 | 76 | 1009.9 |
| 20260904234026 | 79 | 0 | 0.0 | 0.0 | 0.00 | 0.10 | 0.10 | 76 | 1010.0 |
| 20260904233530 | 79 | 0 | 0.0 | 1.0 | 0.00 | 0.10 | 0.10 | 75 | 1010.0 |
| 20260904233058 | 80 | 0 | 0.0 | 1.0 | 0.00 | 0.10 | 0.10 | 74 | 1009.9 |
| 20260904232530 | 80 | 0 | 0.0 | 1.0 | 0.00 | 0.10 | 0.10 | 73 | 1010.0 |
| 20260904232024 | 80 | 0 | 0.0 | 1.0 | 0.00 | 0.10 | 0.10 | 72 | 1009.9 |
| 20260904231546 | 80 | 0 | 0.0 | 1.0 | 0.00 | 0.10 | 0.10 | 71 | 1010.1 |
| 20260904231025 | 81 | 0 | 0.0 | 1.0 | 0.00 | 0.10 | 0.10 | 72 | 1010.2 |
| 20260904230528 | 81 | 0 | 0.0 | 1.0 | 0.00 | 0.10 | 0.10 | 71 | 1010.1 |
| 20260904230048 | 81 | 0 | 0.0 | 1.0 | 0.00 | 0.10 | 0.10 | 70 | 1010.1 |
| 20260904225525 | 81 | 0 | 0.0 | 1.0 | 0.00 | 0.10 | 0.10 | 70 | 1010.1 |
| 20260904225028 | 81 | 0 | 0.0 | 1.0 | 0.00 | 0.10 | 0.10 | 69 | 1010.3 |
| 20260904224550 | 82 | 0 | 0.0 | 1.0 | 0.00 | 0.10 | 0.10 | 69 | 1010.3 |